Zurück zum Katalog

STARLINK-37982

AktivKommunikationVLEO
NORAD 100285·PAYLOAD·🇺🇸 United States

Gestartet Aug 11, 2026 von Cape Canaveral Space Force Station

Loading…

Nächste Überflüge (nächste 24 Stunden)

TLE

VeraltetSource: Space-Track

Epoche: Sep 8, 2026, 16:21 UTC

1 A0285U 26183P   26251.68152251 -.00983050  00000-0 -84074-2 0  9993
2 A0285  53.1592 315.1828 0002188  37.2582 322.8588 15.71215578  4457

Verfolge STARLINK-37982 in Echtzeit mit AllMySat

Download on the App Store